[[{"header":{"parameterUnit":"m.s-1","parameterCategory":1,"la1":30.2992,"la2":30.254,"lo1":-89.0895,"lo2":-89.0443,"dy":0.0025,"dx":0.0025,"nx":19,"ny":19,"refTime":"2026-03-26T09:00:00:Z","depth":0,"parameterNumber":2,"parameterNumberName":"U-component_of_WINDS"},"data":[0,0,0,0.041,0.0408,0.032,0.0319,0.02,0.0199,0,0,0,0,0,0,0,0,0,0,0,0.0431,0.043,0.041,0.0408,0.032,0.0319,0.02,0.0199,0,0,0,0,0,0,0,0,0,0,0,0.0431,0.043,0.0429,0.0407,0.032,0.0319,0.02,0.0269,0,0,0,0,0,0,0,0,0,0,0.0357,0.037,0.043,0.0429,0.0407,0.032,0.0319,0.0273,0.0265,0.0237,0,0.0208,0,0.0201,0.019,0.019,0,0,0,0.0412,0.0376,0.0357,0.0429,0.0406,0.032,0.0361,0.0269,0.026,0.0226,0.0207,0.0202,0.0199,0.0189,0.0189,0.0007,0.0006,0,0,0.0417,0.0412,0.0363,0.0351,0.0363,0.0363,0.0358,0.0263,0.0242,0.0206,0.02,0.0197,0.0188,0.0187,0.0008,0.0007,0,0,0,0.0428,0.0415,0.0399,0.0356,0.0341,0.0361,0.0354,0.0247,0.0242,0.0199,0.0196,0.0188,0.0186,0.001,0.0008,-0.0048,0,0,0,0.0431,0.0422,0.0401,0.0397,0.0342,0.0292,0.0339,0.0248,0.0238,0.0197,0.0188,0.0185,0.0011,0.0009,-0.0044,-0.0074,0,0,0,0.0438,0.0423,0.0408,0.0397,0.0358,0.0294,0.0284,0.0246,0.0236,0.0189,0.0184,0.0011,0.0009,-0.0041,-0.0068,-0.0122,0,0,0,0.0445,0.0358,0.0407,0.031,0.0359,0.0259,0.0284,0.021,0.0164,0.0187,0.0011,0.0008,-0.004,-0.0065,-0.0118,-0.0168,-0.019,0,0,0.0333,0.0345,0.0288,0.0329,0.0219,0.0273,0.0156,0.0118,0.0118,0.0045,0.004,-0.0046,-0.0068,-0.0121,-0.0309,-0.0327,0,0,0,0.0251,0.0211,0.0183,0.0138,0.0107,0.0079,0.006,0.0046,-0.0016,0.0079,-0.008,-0.0093,-0.0124,-0.0148,-0.0162,-0.0188,-0.0003,-0.0003,-0.0003,0.0086,0.0092,-0.0001,-0.0005,-0.0049,-0.0067,-0.0101,-0.0122,-0.0104,-0.0142,-0.0164,-0.0278,-0.0306,-0.0317,-0.0344,-0.019,-0.019,-0.019,-0.0191,-0.0076,-0.0132,-0.0105,-0.0185,-0.0178,-0.0245,-0.0265,-0.0249,-0.0309,-0.0262,-0.0289,-0.0238,-0.0336,-0.0359,-0.0195,-0.0194,-0.0193,-0.0193,-0.0193,-0.0183,-0.0209,-0.0224,-0.0286,-0.0334,-0.0336,-0.0394,-0.0386,-0.0378,-0.0405,-0.0426,-0.0425,-0.0422,-0.0416,-0.0416,-0.0417,-0.0417,-0.0417,-0.0418,-0.0288,-0.0303,-0.0354,-0.0392,-0.0419,-0.0452,-0.047,-0.0495,-0.0521,-0.051,-0.051,-0.0487,-0.0347,-0.0312,-0.0424,-0.0423,-0.0422,-0.0421,-0.0421,-0.0453,-0.0414,-0.0493,-0.0519,-0.0563,-0.061,-0.0598,-0.065,-0.067,-0.0698,-0.067,-0.0568,-0.0555,-0.0543,-0.0514,-0.0672,-0.0672,-0.0672,-0.0672,-0.0543,-0.0536,-0.0613,-0.0656,-0.0696,-0.0693,-0.078,-0.0793,-0.0801,-0.0812,-0.0788,-0.0748,-0.0737,-0.0731,-0.0715,-0.0687,-0.0886,-0.0886,-0.0886,-0.0644,-0.064,-0.0716,-0.0724,-0.0756,-0.0784,-0.0865,-0.0913,-0.0914,-0.0894,-0.082,-0.0811,-0.0747,-0.0727,-0.0706,-0.0682,-0.0631,0,0]},{"header":{"parameterUnit":"m.s-1","parameterCategory":1,"la1":30.2992,"la2":30.254,"lo1":-89.0895,"lo2":-89.0443,"dy":0.0025,"dx":0.0025,"nx":19,"ny":19,"refTime":"2026-03-26T09:00:00:Z","depth":0,"parameterNumber":3,"parameterNumberName":"V-component_of_WINDS"},"data":[0,0,0,0.5567,0.5566,0.5524,0.5524,0.547,0.547,0,0,0,0,0,0,0,0,0,0,0,0.558,0.558,0.5567,0.5566,0.5524,0.5524,0.547,0.547,0,0,0,0,0,0,0,0,0,0,0,0.558,0.558,0.558,0.5566,0.5524,0.5524,0.547,0.5502,0,0,0,0,0,0,0,0,0,0,0.5543,0.5556,0.558,0.558,0.5566,0.5524,0.5524,0.5504,0.55,0.5489,0,0.548,0,0.5474,0.5466,0.5466,0,0,0,0.5566,0.5559,0.5547,0.558,0.5565,0.5524,0.5543,0.5502,0.5498,0.5484,0.5479,0.5477,0.5473,0.5466,0.5465,0.5402,0.5402,0,0,0.5568,0.5573,0.5549,0.5544,0.5551,0.5544,0.5542,0.5499,0.5494,0.5479,0.5476,0.5472,0.5465,0.5465,0.5403,0.5402,0,0,0,0.5575,0.5575,0.5564,0.5546,0.5539,0.5543,0.554,0.5496,0.5492,0.5476,0.5472,0.5465,0.5464,0.5403,0.5403,0.5392,0,0,0,0.5576,0.5579,0.5565,0.5568,0.554,0.5517,0.5538,0.5495,0.549,0.5472,0.5465,0.5464,0.5403,0.5403,0.5393,0.5386,0,0,0,0.5583,0.558,0.5574,0.5568,0.555,0.5518,0.5511,0.5494,0.5487,0.5466,0.5464,0.5404,0.5403,0.5394,0.5387,0.5368,0,0,0,0.5591,0.5567,0.5574,0.5545,0.555,0.5512,0.5511,0.5483,0.5463,0.5465,0.5403,0.5403,0.5394,0.5388,0.5369,0.5352,0.5346,0,0,0.5564,0.5564,0.5546,0.5551,0.5512,0.5518,0.5477,0.5455,0.5449,0.5418,0.5416,0.5392,0.5387,0.5368,0.5313,0.5308,0,0,0,0.5539,0.5526,0.5515,0.5496,0.5477,0.546,0.5444,0.5435,0.5408,0.5434,0.5381,0.5378,0.5367,0.5358,0.5354,0.5343,0.5399,0.5399,0.54,0.5508,0.5499,0.5468,0.5454,0.5435,0.5416,0.54,0.5384,0.5384,0.5371,0.5362,0.5328,0.5319,0.5316,0.5304,0.5353,0.5353,0.5353,0.5353,0.5465,0.5444,0.544,0.5409,0.5399,0.5373,0.5352,0.5352,0.5325,0.5336,0.5326,0.5337,0.531,0.5299,0.5352,0.5352,0.5353,0.5353,0.5353,0.5442,0.543,0.5419,0.5387,0.5363,0.535,0.5322,0.5316,0.5309,0.5299,0.5286,0.5286,0.5283,0.5293,0.5293,0.5293,0.5293,0.5293,0.5293,0.5422,0.5409,0.5387,0.5363,0.5347,0.5326,0.5304,0.5288,0.5269,0.5266,0.5266,0.5264,0.531,0.532,0.5291,0.5291,0.5292,0.5292,0.5292,0.538,0.5387,0.5353,0.5337,0.5305,0.528,0.5271,0.5238,0.5225,0.521,0.521,0.5246,0.5246,0.5249,0.5258,0.5214,0.5214,0.5214,0.5214,0.5359,0.5358,0.5319,0.5293,0.5267,0.5254,0.5212,0.5194,0.5176,0.5166,0.5171,0.5182,0.5186,0.5184,0.5189,0.5196,0.5138,0.5138,0.5138,0.5331,0.5326,0.5293,0.5274,0.5248,0.5225,0.5184,0.5153,0.5135,0.5134,0.5157,0.516,0.5178,0.5185,0.5185,0.5192,0.5206,0,0]}]]